contact:dominique.lefevre@mio.osupytheas.fr, maurice.libes@osupytheas.fr, didier.mallarino@osupytheas.fr
Project:EMSO http://www.emso-fr.org/EMSO-France
Depth: 2436.0 m
Title:EMSO Ligure Ouest : Data MII capteur MICROCAT
DateTime_Computer,Latitude,Longitude,Temperature,Conductivity,Pressure,DateTime_Instrument
DateTime_Computer,Latitude,Longitude,degC,S m-1,dbar,DateTime_Instrument
2021-11-12T00:00:48Z,42.805,6.029,13.2990,4.60010,2470.427,2021-11-12T02:02:14Z
2021-11-12T00:03:51Z,42.805,6.029,13.2990,4.60010,2470.413,2021-11-12T02:05:17Z
2021-11-12T00:06:54Z,42.805,6.029,13.2991,4.60011,2470.45,2021-11-12T02:08:20Z
2021-11-12T00:09:58Z,42.805,6.029,13.2991,4.60016,2470.46,2021-11-12T02:11:23Z
2021-11-12T00:13:01Z,42.805,6.029,13.2993,4.60010,2470.45,2021-11-12T02:14:26Z
2021-11-12T00:16:04Z,42.805,6.029,13.2992,4.60011,2470.474,2021-11-12T02:17:29Z
2021-11-12T00:19:07Z,42.805,6.029,13.2990,4.60009,2470.427,2021-11-12T02:20:33Z
2021-11-12T00:22:10Z,42.805,6.029,13.2994,4.60009,2470.437,2021-11-12T02:23:36Z
2021-11-12T00:25:13Z,42.805,6.029,13.2993,4.60010,2470.413,2021-11-12T02:26:39Z
2021-11-12T00:28:16Z,42.805,6.029,13.2987,4.60011,2470.413,2021-11-12T02:29:42Z
2021-11-12T00:31:19Z,42.805,6.029,13.2990,4.60015,2470.427,2021-11-12T02:32:45Z
2021-11-12T00:34:23Z,42.805,6.029,13.2993,4.60010,2470.39,2021-11-12T02:35:48Z
2021-11-12T00:37:26Z,42.805,6.029,13.2991,4.60010,2470.427,2021-11-12T02:38:51Z
2021-11-12T00:40:29Z,42.805,6.029,13.2990,4.60010,2470.413,2021-11-12T02:41:54Z
2021-11-12T00:43:32Z,42.805,6.029,13.2992,4.60011,2470.437,2021-11-12T02:44:58Z
2021-11-12T00:46:35Z,42.805,6.029,13.2991,4.60011,2470.45,2021-11-12T02:48:01Z
2021-11-12T00:49:38Z,42.805,6.029,13.2989,4.60011,2470.46,2021-11-12T02:51:04Z
2021-11-12T00:52:41Z,42.805,6.029,13.2993,4.60011,2470.437,2021-11-12T02:54:07Z
2021-11-12T00:55:44Z,42.805,6.029,13.2995,4.60015,2470.474,2021-11-12T02:57:10Z
2021-11-12T00:58:47Z,42.805,6.029,13.2992,4.60011,2470.427,2021-11-12T03:00:13Z
2021-11-12T01:01:51Z,42.805,6.029,13.2993,4.60011,2470.413,2021-11-12T03:03:16Z
2021-11-12T01:04:54Z,42.805,6.029,13.2993,4.60011,2470.437,2021-11-12T03:06:19Z
2021-11-12T01:07:57Z,42.805,6.029,13.2991,4.60011,2470.45,2021-11-12T03:09:23Z
2021-11-12T01:11:00Z,42.805,6.029,13.2992,4.60014,2470.437,2021-11-12T03:12:26Z
2021-11-12T01:14:03Z,42.805,6.029,13.2993,4.60011,2470.437,2021-11-12T03:15:29Z
2021-11-12T01:17:06Z,42.805,6.029,13.2992,4.60010,2470.413,2021-11-12T03:18:32Z
2021-11-12T01:20:09Z,42.805,6.029,13.2991,4.60011,2470.427,2021-11-12T03:21:35Z
2021-11-12T01:23:12Z,42.805,6.029,13.2991,4.60011,2470.413,2021-11-12T03:24:38Z
2021-11-12T01:26:16Z,42.805,6.029,13.2992,4.60011,2470.437,2021-11-12T03:27:41Z
2021-11-12T01:29:19Z,42.805,6.029,13.2996,4.60011,2470.427,2021-11-12T03:30:44Z
2021-11-12T01:32:22Z,42.805,6.029,13.2993,4.60012,2470.413,2021-11-12T03:33:48Z
2021-11-12T01:35:25Z,42.805,6.029,13.2991,4.60011,2470.437,2021-11-12T03:36:51Z
2021-11-12T01:38:28Z,42.805,6.029,13.2993,4.60014,2470.413,2021-11-12T03:39:54Z
2021-11-12T01:41:31Z,42.805,6.029,13.2994,4.60013,2470.413,2021-11-12T03:42:57Z
2021-11-12T01:44:34Z,42.805,6.029,13.2995,4.60011,2470.39,2021-11-12T03:46:00Z
2021-11-12T01:47:37Z,42.805,6.029,13.2993,4.60014,2470.39,2021-11-12T03:49:03Z
2021-11-12T01:50:41Z,42.805,6.029,13.2991,4.60013,2470.413,2021-11-12T03:52:06Z
2021-11-12T01:53:44Z,42.805,6.029,13.2990,4.60011,2470.39,2021-11-12T03:55:09Z
2021-11-12T01:56:47Z,42.805,6.029,13.2997,4.60011,2470.413,2021-11-12T03:58:13Z
2021-11-12T01:59:50Z,42.805,6.029,13.2991,4.60011,2470.427,2021-11-12T04:01:16Z
2021-11-12T02:02:53Z,42.805,6.029,13.2993,4.60013,2470.413,2021-11-12T04:04:19Z
2021-11-12T02:05:56Z,42.805,6.029,13.2993,4.60011,2470.413,2021-11-12T04:07:22Z
2021-11-12T02:08:59Z,42.805,6.029,13.2996,4.60010,2470.39,2021-11-12T04:10:25Z
2021-11-12T02:12:02Z,42.805,6.029,13.2995,4.60011,2470.39,2021-11-12T04:13:28Z
2021-11-12T02:15:05Z,42.805,6.029,13.2996,4.60011,2470.39,2021-11-12T04:16:31Z
2021-11-12T02:18:09Z,42.805,6.029,13.2991,4.60013,2470.413,2021-11-12T04:19:34Z
2021-11-12T02:21:12Z,42.805,6.029,13.2992,4.60011,2470.427,2021-11-12T04:22:37Z
2021-11-12T02:24:15Z,42.805,6.029,13.2991,4.60011,2470.413,2021-11-12T04:25:41Z
2021-11-12T02:27:18Z,42.805,6.029,13.2990,4.60011,2470.437,2021-11-12T04:28:44Z
2021-11-12T02:30:21Z,42.805,6.029,13.2993,4.60011,2470.404,2021-11-12T04:31:47Z
2021-11-12T02:33:24Z,42.805,6.029,13.2996,4.60014,2470.413,2021-11-12T04:34:50Z
2021-11-12T02:36:27Z,42.805,6.029,13.2993,4.60013,2470.413,2021-11-12T04:37:53Z
2021-11-12T02:39:30Z,42.805,6.029,13.2991,4.60011,2470.39,2021-11-12T04:40:56Z
2021-11-12T02:42:34Z,42.805,6.029,13.2992,4.60011,2470.413,2021-11-12T04:43:59Z
2021-11-12T02:45:37Z,42.805,6.029,13.2994,4.60011,2470.353,2021-11-12T04:47:02Z
2021-11-12T02:48:40Z,42.805,6.029,13.2992,4.60012,2470.404,2021-11-12T04:50:06Z
2021-11-12T02:51:43Z,42.805,6.029,13.2996,4.60013,2470.404,2021-11-12T04:53:09Z
2021-11-12T02:54:46Z,42.805,6.029,13.2996,4.60014,2470.38,2021-11-12T04:56:12Z
2021-11-12T02:57:49Z,42.805,6.029,13.2992,4.60011,2470.39,2021-11-12T04:59:15Z
2021-11-12T03:00:52Z,42.805,6.029,13.2993,4.60011,2470.413,2021-11-12T05:02:18Z
2021-11-12T03:03:55Z,42.805,6.029,13.2992,4.60015,2470.427,2021-11-12T05:05:21Z
2021-11-12T03:06:59Z,42.805,6.029,13.2993,4.60014,2470.413,2021-11-12T05:08:24Z
2021-11-12T03:10:02Z,42.805,6.029,13.2995,4.60013,2470.413,2021-11-12T05:11:27Z
2021-11-12T03:13:05Z,42.805,6.029,13.2994,4.60019,2470.404,2021-11-12T05:14:31Z
2021-11-12T03:16:08Z,42.805,6.029,13.2997,4.60012,2470.427,2021-11-12T05:17:34Z
2021-11-12T03:19:11Z,42.805,6.029,13.2996,4.60011,2470.366,2021-11-12T05:20:37Z
2021-11-12T03:22:14Z,42.805,6.029,13.2990,4.60011,2470.366,2021-11-12T05:23:40Z
2021-11-12T03:25:17Z,42.805,6.029,13.2992,4.60013,2470.413,2021-11-12T05:26:43Z
2021-11-12T03:28:20Z,42.805,6.029,13.2996,4.60016,2470.38,2021-11-12T05:29:46Z
2021-11-12T03:31:24Z,42.805,6.029,13.2993,4.60011,2470.38,2021-11-12T05:32:49Z
2021-11-12T03:34:27Z,42.805,6.029,13.2996,4.60016,2470.38,2021-11-12T05:35:52Z
2021-11-12T03:37:30Z,42.805,6.029,13.2992,4.60011,2470.39,2021-11-12T05:38:56Z
2021-11-12T03:40:33Z,42.805,6.029,13.2996,4.60014,2470.39,2021-11-12T05:41:59Z
2021-11-12T03:43:36Z,42.805,6.029,13.2993,4.60014,2470.39,2021-11-12T05:45:02Z
2021-11-12T03:46:39Z,42.805,6.029,13.2996,4.60013,2470.39,2021-11-12T05:48:05Z
2021-11-12T03:49:42Z,42.805,6.029,13.2996,4.60011,2470.366,2021-11-12T05:51:08Z
2021-11-12T03:52:45Z,42.805,6.029,13.2991,4.60011,2470.404,2021-11-12T05:54:11Z
2021-11-12T03:55:49Z,42.805,6.029,13.2998,4.60014,2470.39,2021-11-12T05:57:14Z
2021-11-12T03:58:52Z,42.805,6.029,13.2996,4.60017,2470.39,2021-11-12T06:00:17Z
2021-11-12T04:01:55Z,42.805,6.029,13.2995,4.60013,2470.39,2021-11-12T06:03:21Z
2021-11-12T04:04:58Z,42.805,6.029,13.2996,4.60011,2470.404,2021-11-12T06:06:24Z
2021-11-12T04:08:01Z,42.805,6.029,13.2992,4.60013,2470.38,2021-11-12T06:09:27Z
2021-11-12T04:11:04Z,42.805,6.029,13.2996,4.60013,2470.366,2021-11-12T06:12:30Z
2021-11-12T04:14:07Z,42.805,6.029,13.2996,4.60014,2470.404,2021-11-12T06:15:33Z
2021-11-12T04:17:10Z,42.805,6.029,13.2995,4.60011,2470.427,2021-11-12T06:18:36Z
2021-11-12T04:20:14Z,42.805,6.029,13.2991,4.60011,2470.38,2021-11-12T06:21:39Z
2021-11-12T04:23:17Z,42.805,6.029,13.2993,4.60013,2470.366,2021-11-12T06:24:42Z
2021-11-12T04:26:20Z,42.805,6.029,13.2992,4.60014,2470.366,2021-11-12T06:27:46Z
2021-11-12T04:29:23Z,42.805,6.029,13.2999,4.60013,2470.427,2021-11-12T06:30:49Z
2021-11-12T04:32:26Z,42.805,6.029,13.2992,4.60013,2470.366,2021-11-12T06:33:52Z
2021-11-12T04:35:29Z,42.805,6.029,13.2993,4.60014,2470.413,2021-11-12T06:36:55Z
2021-11-12T04:38:32Z,42.805,6.029,13.2989,4.60019,2470.366,2021-11-12T06:39:58Z
2021-11-12T04:41:35Z,42.805,6.029,13.3000,4.60011,2470.404,2021-11-12T06:43:01Z
2021-11-12T04:44:38Z,42.805,6.029,13.2992,4.60014,2470.39,2021-11-12T06:46:04Z
2021-11-12T04:47:42Z,42.805,6.029,13.2996,4.60013,2470.404,2021-11-12T06:49:07Z
2021-11-12T04:50:45Z,42.805,6.029,13.2995,4.60015,2470.404,2021-11-12T06:52:10Z
2021-11-12T04:53:48Z,42.805,6.029,13.2991,4.60014,2470.38,2021-11-12T06:55:14Z
2021-11-12T04:56:51Z,42.805,6.029,13.2996,4.60012,2470.343,2021-11-12T06:58:17Z
2021-11-12T04:59:54Z,42.805,6.029,13.2996,4.60011,2470.427,2021-11-12T07:01:20Z
2021-11-12T05:02:57Z,42.805,6.029,13.2993,4.60011,2470.366,2021-11-12T07:04:23Z
2021-11-12T05:06:00Z,42.805,6.029,13.2993,4.60013,2470.366,2021-11-12T07:07:26Z
2021-11-12T05:09:03Z,42.805,6.029,13.2993,4.60012,2470.38,2021-11-12T07:10:29Z
2021-11-12T05:12:07Z,42.805,6.029,13.2996,4.60011,2470.39,2021-11-12T07:13:32Z
2021-11-12T05:15:10Z,42.805,6.029,13.2996,4.60012,2470.366,2021-11-12T07:16:35Z
2021-11-12T05:18:13Z,42.805,6.029,13.2993,4.60011,2470.366,2021-11-12T07:19:39Z
2021-11-12T05:21:16Z,42.805,6.029,13.2993,4.60012,2470.366,2021-11-12T07:22:42Z
2021-11-12T05:24:19Z,42.805,6.029,13.2998,4.60011,2470.404,2021-11-12T07:25:45Z
2021-11-12T05:27:22Z,42.805,6.029,13.2996,4.60011,2470.404,2021-11-12T07:28:48Z
2021-11-12T05:30:25Z,42.805,6.029,13.2996,4.60016,2470.39,2021-11-12T07:31:51Z
2021-11-12T05:33:28Z,42.805,6.029,13.2993,4.60013,2470.39,2021-11-12T07:34:54Z
2021-11-12T05:36:32Z,42.805,6.029,13.2995,4.60011,2470.38,2021-11-12T07:37:57Z
2021-11-12T05:39:35Z,42.805,6.029,13.2993,4.60011,2470.39,2021-11-12T07:41:00Z
2021-11-12T05:42:38Z,42.805,6.029,13.2993,4.60013,2470.404,2021-11-12T07:44:04Z
2021-11-12T05:45:41Z,42.805,6.029,13.2996,4.60013,2470.39,2021-11-12T07:47:07Z
2021-11-12T05:48:44Z,42.805,6.029,13.2995,4.60011,2470.39,2021-11-12T07:50:10Z
2021-11-12T05:51:47Z,42.805,6.029,13.2993,4.60014,2470.404,2021-11-12T07:53:13Z
2021-11-12T05:54:50Z,42.805,6.029,13.2992,4.60011,2470.404,2021-11-12T07:56:16Z
2021-11-12T05:57:53Z,42.805,6.029,13.2993,4.60011,2470.404,2021-11-12T07:59:19Z
2021-11-12T06:00:57Z,42.805,6.029,13.2993,4.60013,2470.366,2021-11-12T08:02:22Z
2021-11-12T06:04:00Z,42.805,6.029,13.2993,4.60014,2470.38,2021-11-12T08:05:25Z
2021-11-12T06:07:03Z,42.805,6.029,13.2997,4.60011,2470.38,2021-11-12T08:08:29Z
2021-11-12T06:10:06Z,42.805,6.029,13.2994,4.60011,2470.366,2021-11-12T08:11:32Z
2021-11-12T06:13:09Z,42.805,6.029,13.2995,4.60014,2470.404,2021-11-12T08:14:35Z
2021-11-12T06:16:12Z,42.805,6.029,13.2996,4.60013,2470.366,2021-11-12T08:17:38Z
2021-11-12T06:19:15Z,42.805,6.029,13.2994,4.60014,2470.366,2021-11-12T08:20:41Z
2021-11-12T06:22:18Z,42.805,6.029,13.2990,4.60011,2470.366,2021-11-12T08:23:44Z
2021-11-12T06:25:22Z,42.805,6.029,13.2993,4.60011,2470.366,2021-11-12T08:26:47Z
2021-11-12T06:28:25Z,42.805,6.029,13.2995,4.60012,2470.366,2021-11-12T08:29:50Z
2021-11-12T06:31:28Z,42.805,6.029,13.2996,4.60012,2470.366,2021-11-12T08:32:54Z
2021-11-12T06:34:31Z,42.805,6.029,13.2991,4.60012,2470.38,2021-11-12T08:35:57Z
2021-11-12T06:37:34Z,42.805,6.029,13.2994,4.60014,2470.39,2021-11-12T08:39:00Z
2021-11-12T06:40:37Z,42.805,6.029,13.2995,4.60011,2470.38,2021-11-12T08:42:03Z
2021-11-12T06:43:40Z,42.805,6.029,13.2989,4.60011,2470.366,2021-11-12T08:45:06Z
2021-11-12T06:46:43Z,42.805,6.029,13.2996,4.60012,2470.427,2021-11-12T08:48:09Z
2021-11-12T06:49:47Z,42.805,6.029,13.2992,4.60012,2470.39,2021-11-12T08:51:12Z
2021-11-12T06:52:50Z,42.805,6.029,13.2991,4.60011,2470.366,2021-11-12T08:54:15Z
2021-11-12T06:55:53Z,42.805,6.029,13.2991,4.60013,2470.366,2021-11-12T08:57:19Z
2021-11-12T06:58:56Z,42.805,6.029,13.2996,4.60014,2470.39,2021-11-12T09:00:22Z
2021-11-12T07:01:59Z,42.805,6.029,13.2993,4.60012,2470.38,2021-11-12T09:03:25Z
2021-11-12T07:05:02Z,42.805,6.029,13.2991,4.60012,2470.366,2021-11-12T09:06:28Z
2021-11-12T07:08:05Z,42.805,6.029,13.2991,4.60011,2470.343,2021-11-12T09:09:31Z
2021-11-12T07:11:08Z,42.805,6.029,13.2993,4.60013,2470.39,2021-11-12T09:12:34Z
2021-11-12T07:14:12Z,42.805,6.029,13.2996,4.60014,2470.343,2021-11-12T09:15:37Z
2021-11-12T07:17:15Z,42.805,6.029,13.2996,4.60011,2470.366,2021-11-12T09:18:40Z
2021-11-12T07:20:18Z,42.805,6.029,13.2996,4.60012,2470.376,2021-11-12T09:21:44Z
2021-11-12T07:23:21Z,42.805,6.029,13.2994,4.60013,2470.39,2021-11-12T09:24:47Z
2021-11-12T07:26:24Z,42.805,6.029,13.2992,4.60011,2470.366,2021-11-12T09:27:50Z
2021-11-12T07:29:27Z,42.805,6.029,13.2993,4.60011,2470.39,2021-11-12T09:30:53Z
2021-11-12T07:32:30Z,42.805,6.029,13.2994,4.60011,2470.366,2021-11-12T09:33:56Z
2021-11-12T07:35:33Z,42.805,6.029,13.2994,4.60013,2470.39,2021-11-12T09:36:59Z
2021-11-12T07:38:37Z,42.805,6.029,13.2994,4.60011,2470.39,2021-11-12T09:40:02Z
2021-11-12T07:41:40Z,42.805,6.029,13.2996,4.60011,2470.404,2021-11-12T09:43:05Z
2021-11-12T07:44:43Z,42.805,6.029,13.2993,4.60011,2470.413,2021-11-12T09:46:09Z
2021-11-12T07:47:46Z,42.805,6.029,13.2994,4.60011,2470.39,2021-11-12T09:49:12Z
2021-11-12T07:50:49Z,42.805,6.029,13.2996,4.60011,2470.404,2021-11-12T09:52:15Z
2021-11-12T07:53:52Z,42.805,6.029,13.2992,4.60011,2470.366,2021-11-12T09:55:18Z
2021-11-12T07:56:55Z,42.805,6.029,13.2993,4.60013,2470.38,2021-11-12T09:58:21Z
2021-11-12T07:59:58Z,42.805,6.029,13.2997,4.60011,2470.39,2021-11-12T10:01:24Z
2021-11-12T08:03:01Z,42.805,6.029,13.2993,4.60011,2470.404,2021-11-12T10:04:27Z
2021-11-12T08:06:05Z,42.805,6.029,13.2996,4.60011,2470.39,2021-11-12T10:07:30Z
2021-11-12T08:09:08Z,42.805,6.029,13.2996,4.60011,2470.39,2021-11-12T10:10:33Z
2021-11-12T08:12:11Z,42.805,6.029,13.2993,4.60013,2470.404,2021-11-12T10:13:37Z
2021-11-12T08:15:14Z,42.805,6.029,13.2993,4.60011,2470.366,2021-11-12T10:16:40Z
2021-11-12T08:18:17Z,42.805,6.029,13.2995,4.60011,2470.39,2021-11-12T10:19:43Z
2021-11-12T08:21:20Z,42.805,6.029,13.2993,4.60013,2470.39,2021-11-12T10:22:46Z
2021-11-12T08:24:23Z,42.805,6.029,13.2992,4.60013,2470.413,2021-11-12T10:25:49Z
2021-11-12T08:27:27Z,42.805,6.029,13.2995,4.60011,2470.353,2021-11-12T10:28:52Z
2021-11-12T08:30:30Z,42.805,6.029,13.2991,4.60013,2470.39,2021-11-12T10:31:55Z
2021-11-12T08:33:33Z,42.805,6.029,13.3000,4.60012,2470.366,2021-11-12T10:34:59Z
2021-11-12T08:36:36Z,42.805,6.029,13.2993,4.60014,2470.39,2021-11-12T10:38:02Z
2021-11-12T08:39:39Z,42.805,6.029,13.2991,4.60011,2470.39,2021-11-12T10:41:05Z
2021-11-12T08:42:42Z,42.805,6.029,13.2991,4.60011,2470.39,2021-11-12T10:44:08Z
2021-11-12T08:45:45Z,42.805,6.029,13.2991,4.60013,2470.413,2021-11-12T10:47:11Z
2021-11-12T08:48:48Z,42.805,6.029,13.2996,4.60011,2470.413,2021-11-12T10:50:14Z
2021-11-12T08:51:52Z,42.805,6.029,13.2994,4.60011,2470.39,2021-11-12T10:53:17Z
2021-11-12T08:54:55Z,42.805,6.029,13.2993,4.60012,2470.413,2021-11-12T10:56:20Z
2021-11-12T08:57:58Z,42.805,6.029,13.2991,4.60014,2470.413,2021-11-12T10:59:24Z
2021-11-12T09:01:01Z,42.805,6.029,13.2996,4.60012,2470.413,2021-11-12T11:02:27Z
2021-11-12T09:04:04Z,42.805,6.029,13.2994,4.60012,2470.39,2021-11-12T11:05:30Z
2021-11-12T09:07:07Z,42.805,6.029,13.2990,4.60014,2470.427,2021-11-12T11:08:33Z
2021-11-12T09:10:10Z,42.805,6.029,13.2998,4.60011,2470.413,2021-11-12T11:11:36Z
2021-11-12T09:13:13Z,42.805,6.029,13.2991,4.60011,2470.413,2021-11-12T11:14:39Z
2021-11-12T09:16:17Z,42.805,6.029,13.2993,4.60014,2470.404,2021-11-12T11:17:42Z
2021-11-12T09:19:20Z,42.805,6.029,13.2999,4.60014,2470.39,2021-11-12T11:20:45Z
2021-11-12T09:22:23Z,42.805,6.029,13.2996,4.60012,2470.45,2021-11-12T11:23:49Z
2021-11-12T09:25:26Z,42.805,6.029,13.2995,4.60013,2470.437,2021-11-12T11:26:52Z
2021-11-12T09:28:29Z,42.805,6.029,13.2998,4.60013,2470.39,2021-11-12T11:29:55Z
2021-11-12T09:31:32Z,42.805,6.029,13.2995,4.60013,2470.427,2021-11-12T11:32:58Z
2021-11-12T09:34:35Z,42.805,6.029,13.2999,4.60013,2470.427,2021-11-12T11:36:01Z
2021-11-12T09:37:38Z,42.805,6.029,13.2994,4.60014,2470.474,2021-11-12T11:39:04Z
2021-11-12T09:40:42Z,42.805,6.029,13.2996,4.60016,2470.427,2021-11-12T11:42:07Z
2021-11-12T09:43:45Z,42.805,6.029,13.2997,4.60014,2470.413,2021-11-12T11:45:10Z
2021-11-12T09:46:48Z,42.805,6.029,13.2994,4.60013,2470.413,2021-11-12T11:48:14Z
2021-11-12T09:49:51Z,42.805,6.029,13.2993,4.60013,2470.45,2021-11-12T11:51:17Z
2021-11-12T09:52:54Z,42.805,6.029,13.2995,4.60013,2470.413,2021-11-12T11:54:20Z
2021-11-12T09:55:57Z,42.805,6.029,13.2995,4.60014,2470.413,2021-11-12T11:57:23Z
2021-11-12T09:59:00Z,42.805,6.029,13.2995,4.60014,2470.45,2021-11-12T12:00:26Z
2021-11-12T10:02:03Z,42.805,6.029,13.2993,4.60014,2470.437,2021-11-12T12:03:29Z
2021-11-12T10:05:07Z,42.805,6.029,13.2996,4.60013,2470.437,2021-11-12T12:06:32Z
2021-11-12T10:08:10Z,42.805,6.029,13.2996,4.60014,2470.437,2021-11-12T12:09:35Z
2021-11-12T10:11:13Z,42.805,6.029,13.2993,4.60013,2470.46,2021-11-12T12:12:39Z
2021-11-12T10:14:16Z,42.805,6.029,13.2997,4.60013,2470.46,2021-11-12T12:15:42Z
2021-11-12T10:17:19Z,42.805,6.029,13.2995,4.60013,2470.474,2021-11-12T12:18:45Z
2021-11-12T10:20:22Z,42.805,6.029,13.2995,4.60014,2470.437,2021-11-12T12:21:48Z
2021-11-12T10:23:25Z,42.805,6.029,13.2993,4.60014,2470.437,2021-11-12T12:24:51Z
2021-11-12T10:26:28Z,42.805,6.029,13.2996,4.60014,2470.46,2021-11-12T12:27:54Z
2021-11-12T10:29:32Z,42.805,6.029,13.2998,4.60013,2470.446,2021-11-12T12:30:57Z
2021-11-12T10:32:35Z,42.805,6.029,13.2993,4.60013,2470.474,2021-11-12T12:34:00Z
2021-11-12T10:35:38Z,42.805,6.029,13.2998,4.60014,2470.483,2021-11-12T12:37:04Z
2021-11-12T10:38:41Z,42.805,6.029,13.2998,4.60014,2470.46,2021-11-12T12:40:07Z
2021-11-12T10:41:44Z,42.805,6.029,13.2995,4.60014,2470.497,2021-11-12T12:43:10Z
2021-11-12T10:44:47Z,42.805,6.029,13.2996,4.60014,2470.474,2021-11-12T12:46:13Z
2021-11-12T10:47:50Z,42.805,6.029,13.2996,4.60014,2470.46,2021-11-12T12:49:16Z
2021-11-12T10:50:53Z,42.805,6.029,13.2996,4.60014,2470.483,2021-11-12T12:52:19Z
2021-11-12T10:53:57Z,42.805,6.029,13.2996,4.60014,2470.474,2021-11-12T12:55:22Z
2021-11-12T10:57:00Z,42.805,6.029,13.2996,4.60014,2470.483,2021-11-12T12:58:25Z
2021-11-12T11:00:03Z,42.805,6.029,13.2997,4.60014,2470.483,2021-11-12T13:01:29Z
2021-11-12T11:03:06Z,42.805,6.029,13.2993,4.60014,2470.46,2021-11-12T13:04:32Z
2021-11-12T11:06:09Z,42.805,6.029,13.2999,4.60014,2470.483,2021-11-12T13:07:35Z
2021-11-12T11:09:12Z,42.805,6.029,13.2993,4.60014,2470.474,2021-11-12T13:10:38Z
2021-11-12T11:12:15Z,42.805,6.029,13.2996,4.60014,2470.497,2021-11-12T13:13:41Z
2021-11-12T11:15:18Z,42.805,6.029,13.2996,4.60014,2470.46,2021-11-12T13:16:44Z
2021-11-12T11:18:22Z,42.805,6.029,13.2994,4.60014,2470.483,2021-11-12T13:19:47Z
2021-11-12T11:21:25Z,42.805,6.029,13.2996,4.60014,2470.483,2021-11-12T13:22:50Z
2021-11-12T11:24:28Z,42.805,6.029,13.2996,4.60015,2470.474,2021-11-12T13:25:54Z
2021-11-12T11:27:31Z,42.805,6.029,13.2993,4.60015,2470.483,2021-11-12T13:28:57Z
2021-11-12T11:30:34Z,42.805,6.029,13.2992,4.60014,2470.52,2021-11-12T13:32:00Z
2021-11-12T11:33:37Z,42.805,6.029,13.2997,4.60014,2470.497,2021-11-12T13:35:03Z
2021-11-12T11:36:40Z,42.805,6.029,13.2996,4.60015,2470.483,2021-11-12T13:38:06Z
2021-11-12T11:39:43Z,42.805,6.029,13.2995,4.60014,2470.483,2021-11-12T13:41:09Z
2021-11-12T11:42:47Z,42.805,6.029,13.2995,4.60014,2470.483,2021-11-12T13:44:12Z
2021-11-12T11:45:50Z,42.805,6.029,13.2995,4.60016,2470.483,2021-11-12T13:47:16Z
2021-11-12T11:48:53Z,42.805,6.029,13.2995,4.60014,2470.507,2021-11-12T13:50:19Z
2021-11-12T11:51:56Z,42.805,6.029,13.2995,4.60015,2470.483,2021-11-12T13:53:22Z
2021-11-12T11:54:59Z,42.805,6.029,13.2996,4.60015,2470.497,2021-11-12T13:56:25Z
2021-11-12T11:58:02Z,42.805,6.029,13.2994,4.60014,2470.507,2021-11-12T13:59:28Z
2021-11-12T12:01:05Z,42.805,6.029,13.2993,4.60014,2470.53,2021-11-12T14:02:31Z
2021-11-12T12:04:09Z,42.805,6.029,13.2997,4.60015,2470.507,2021-11-12T14:05:34Z
2021-11-12T12:07:12Z,42.805,6.029,13.2993,4.60015,2470.52,2021-11-12T14:08:37Z
2021-11-12T12:10:15Z,42.805,6.029,13.2993,4.59997,2470.52,2021-11-12T14:11:41Z
2021-11-12T12:13:18Z,42.805,6.029,13.2996,4.60016,2470.52,2021-11-12T14:14:44Z
2021-11-12T12:16:21Z,42.805,6.029,13.2994,4.60015,2470.497,2021-11-12T14:17:47Z
2021-11-12T12:19:24Z,42.805,6.029,13.2994,4.60016,2470.53,2021-11-12T14:20:50Z
2021-11-12T12:22:27Z,42.805,6.029,13.2998,4.60016,2470.53,2021-11-12T14:23:53Z
2021-11-12T12:25:30Z,42.805,6.029,13.2996,4.60016,2470.507,2021-11-12T14:26:56Z
2021-11-12T12:28:34Z,42.805,6.029,13.2995,4.60018,2470.544,2021-11-12T14:29:59Z
2021-11-12T12:31:37Z,42.805,6.029,13.3000,4.60015,2470.52,2021-11-12T14:33:02Z
2021-11-12T12:34:40Z,42.805,6.029,13.2993,4.60015,2470.497,2021-11-12T14:36:06Z
2021-11-12T12:37:43Z,42.805,6.029,13.2996,4.60017,2470.53,2021-11-12T14:39:09Z
2021-11-12T12:40:46Z,42.805,6.029,13.2998,4.60015,2470.507,2021-11-12T14:42:12Z
2021-11-12T12:43:49Z,42.805,6.029,13.2995,4.60015,2470.53,2021-11-12T14:45:15Z
2021-11-12T12:46:52Z,42.805,6.029,13.2993,4.60016,2470.497,2021-11-12T14:48:18Z
2021-11-12T12:49:55Z,42.805,6.029,13.2997,4.60015,2470.507,2021-11-12T14:51:21Z
2021-11-12T12:52:59Z,42.805,6.029,13.2998,4.60015,2470.53,2021-11-12T14:54:24Z
2021-11-12T12:56:02Z,42.805,6.029,13.2997,4.60016,2470.53,2021-11-12T14:57:27Z
2021-11-12T12:59:05Z,42.805,6.029,13.2994,4.60015,2470.53,2021-11-12T15:00:31Z
2021-11-12T13:02:08Z,42.805,6.029,13.2999,4.60016,2470.507,2021-11-12T15:03:34Z
2021-11-12T13:05:11Z,42.805,6.029,13.2999,4.60015,2470.544,2021-11-12T15:06:37Z
2021-11-12T13:08:14Z,42.805,6.029,13.2992,4.60016,2470.52,2021-11-12T15:09:40Z
2021-11-12T13:11:17Z,42.805,6.029,13.2996,4.60015,2470.53,2021-11-12T15:12:43Z
2021-11-12T13:14:20Z,42.805,6.029,13.2998,4.60016,2470.507,2021-11-12T15:15:46Z
2021-11-12T13:17:24Z,42.805,6.029,13.2996,4.60016,2470.53,2021-11-12T15:18:49Z
2021-11-12T13:20:27Z,42.805,6.029,13.2998,4.60016,2470.53,2021-11-12T15:21:52Z
2021-11-12T13:23:30Z,42.805,6.029,13.2997,4.60017,2470.52,2021-11-12T15:24:56Z
2021-11-12T13:26:33Z,42.805,6.029,13.2998,4.60016,2470.53,2021-11-12T15:27:59Z
2021-11-12T13:29:36Z,42.805,6.029,13.2996,4.60019,2470.544,2021-11-12T15:31:02Z
2021-11-12T13:32:39Z,42.805,6.029,13.2996,4.60017,2470.544,2021-11-12T15:34:05Z
2021-11-12T13:35:42Z,42.805,6.029,13.2998,4.60016,2470.591,2021-11-12T15:37:08Z
2021-11-12T13:38:46Z,42.805,6.029,13.2994,4.60021,2470.507,2021-11-12T15:40:11Z
2021-11-12T13:41:49Z,42.805,6.029,13.2997,4.60019,2470.507,2021-11-12T15:43:14Z
2021-11-12T13:44:52Z,42.805,6.029,13.2998,4.60016,2470.544,2021-11-12T15:46:18Z
2021-11-12T13:47:55Z,42.805,6.029,13.2996,4.60018,2470.507,2021-11-12T15:49:21Z
2021-11-12T13:50:58Z,42.805,6.029,13.2998,4.60016,2470.544,2021-11-12T15:52:24Z
2021-11-12T13:54:01Z,42.805,6.029,13.3000,4.60017,2470.53,2021-11-12T15:55:27Z
2021-11-12T13:57:04Z,42.805,6.029,13.2998,4.60018,2470.553,2021-11-12T15:58:30Z
2021-11-12T14:00:07Z,42.805,6.029,13.3000,4.60017,2470.544,2021-11-12T16:01:33Z
2021-11-12T14:03:11Z,42.805,6.029,13.3002,4.60019,2470.53,2021-11-12T16:04:36Z
2021-11-12T14:06:14Z,42.805,6.029,13.2996,4.60018,2470.507,2021-11-12T16:07:39Z
2021-11-12T14:09:17Z,42.805,6.029,13.2997,4.60019,2470.544,2021-11-12T16:10:43Z
2021-11-12T14:12:20Z,42.805,6.029,13.3000,4.60019,2470.53,2021-11-12T16:13:46Z
2021-11-12T14:15:23Z,42.805,6.029,13.3000,4.60018,2470.553,2021-11-12T16:16:49Z
2021-11-12T14:18:26Z,42.805,6.029,13.3001,4.60019,2470.553,2021-11-12T16:19:52Z
2021-11-12T14:21:29Z,42.805,6.029,13.2998,4.60020,2470.553,2021-11-12T16:22:55Z
2021-11-12T14:24:32Z,42.805,6.029,13.2996,4.60019,2470.567,2021-11-12T16:25:58Z
2021-11-12T14:27:36Z,42.805,6.029,13.3000,4.60020,2470.53,2021-11-12T16:29:01Z
2021-11-12T14:30:39Z,42.805,6.029,13.2999,4.60019,2470.553,2021-11-12T16:32:04Z
2021-11-12T14:33:42Z,42.805,6.029,13.2997,4.60019,2470.553,2021-11-12T16:35:08Z
2021-11-12T14:36:45Z,42.805,6.029,13.2999,4.60019,2470.544,2021-11-12T16:38:11Z
2021-11-12T14:39:48Z,42.805,6.029,13.2998,4.60019,2470.507,2021-11-12T16:41:14Z
2021-11-12T14:42:51Z,42.805,6.029,13.2997,4.60019,2470.53,2021-11-12T16:44:17Z
2021-11-12T14:45:54Z,42.805,6.029,13.3002,4.60019,2470.553,2021-11-12T16:47:20Z
2021-11-12T14:48:57Z,42.805,6.029,13.2998,4.60019,2470.567,2021-11-12T16:50:23Z
2021-11-12T14:52:01Z,42.805,6.029,13.2998,4.60019,2470.553,2021-11-12T16:53:26Z
2021-11-12T14:55:04Z,42.805,6.029,13.2998,4.60019,2470.553,2021-11-12T16:56:29Z
2021-11-12T14:58:07Z,42.805,6.029,13.2997,4.60020,2470.553,2021-11-12T16:59:33Z
2021-11-12T15:01:10Z,42.805,6.029,13.3001,4.60020,2470.507,2021-11-12T17:02:36Z